EW3721 Weather Reports


Display with metric or nautical units.
time (UTC)temp
F
wind
direction
speed
MPH
gust
MPH
rain 1hr
in
rain 24hr
in
rain mn
in
humidity
%
barometer
mb
20260904074106 71 221 0.0 0.0 0.00 0.00 0.00 97 1010.0
20260904073607 70 221 0.0 0.0 0.00 0.00 0.00 97 1010.2
20260904073106 70 221 0.0 0.0 0.00 0.00 0.00 97 1010.1
20260904072107 70 221 0.0 0.0 0.00 0.01 0.00 97 1010.1
20260904071107 70 221 0.0 0.0 0.00 0.01 0.00 97 1010.3
20260904070606 70 221 0.0 0.0 0.00 0.01 0.00 97 1010.4
20260904065607 70 221 0.0 0.0 0.00 0.01 0.00 97 1010.3
20260904064606 70 221 0.0 0.0 0.00 0.02 0.00 97 1010.4
20260904064106 70 221 0.0 0.0 0.00 0.02 0.00 97 1010.4
20260904063606 70 221 0.0 0.0 0.00 0.02 0.00 97 1010.5
20260904063106 70 221 0.0 0.0 0.00 0.02 0.00 96 1010.6
20260904062607 70 221 0.0 0.0 0.00 0.02 0.00 96 1010.6
20260904062107 70 221 0.0 0.0 0.00 0.03 0.00 96 1010.7
20260904061606 70 221 0.0 0.0 0.00 0.04 0.00 96 1010.7
20260904061107 70 221 0.0 0.0 0.00 0.05 0.00 96 1010.6
20260904060607 70 221 0.0 0.0 0.00 0.08 0.00 96 1010.6
20260904060107 70 221 0.0 0.0 0.00 0.17 0.00 96 1010.7
20260904055607 70 221 0.0 0.0 0.00 0.29 0.00 96 1010.8
20260904055107 70 221 0.0 0.0 0.00 0.42 0.00 96 1010.8
20260904054607 70 221 0.0 0.0 0.00 0.46 0.00 96 1010.9
20260904053106 70 221 0.0 0.0 0.00 0.48 0.00 96 1011.0
20260904052607 70 221 0.0 0.0 0.00 0.48 0.00 96 1011.1
20260904051606 70 221 0.0 0.0 0.00 0.48 0.00 96 1011.2
20260904051106 70 221 0.0 0.0 0.00 0.48 0.00 96 1011.4
20260904050107 70 221 0.0 0.0 0.00 0.48 0.00 95 1011.5
20260904045607 70 221 0.0 0.0 0.00 0.48 0.00 95 1011.6
20260904045106 70 221 0.0 0.0 0.00 0.48 0.00 95 1011.5
20260904044607 70 221 0.0 0.0 0.00 0.48 0.00 95 1011.4
20260904044106 70 221 0.0 0.0 0.00 0.48 0.00 95 1011.5
20260904043606 70 221 0.0 0.0 0.00 0.48 0.00 95 1011.6
20260904043107 70 221 0.0 0.0 0.00 0.48 0.00 95 1011.5
20260904042606 70 221 0.0 0.0 0.00 0.48 0.00 95 1011.6
20260904042106 70 221 0.0 0.0 0.00 0.48 0.00 95 1011.7
20260904041606 70 221 0.0 0.0 0.00 0.48 0.00 95 1011.7
20260904041106 70 221 0.0 0.0 0.00 0.48 0.00 95 1011.7
20260904040606 70 221 0.0 0.0 0.00 0.48 0.00 95 1011.7
20260904035606 70 221 0.0 0.0 0.00 0.48 0.48 95 1011.8
20260904035106 71 221 0.0 0.0 0.00 0.48 0.48 95 1011.8
20260904034106 71 221 0.0 0.0 0.00 0.48 0.48 95 1011.7
20260904033606 71 221 0.0 0.0 0.00 0.48 0.48 95 1011.8
20260904033106 71 221 0.0 0.0 0.00 0.48 0.48 95 1012.0
20260904032606 71 221 0.0 0.0 0.00 0.48 0.48 95 1012.1
20260904032106 71 221 0.0 0.0 0.00 0.48 0.48 95 1012.1
20260904031606 71 221 0.0 0.0 0.00 0.48 0.48 95 1012.1
20260904031106 71 221 0.0 0.0 0.00 0.48 0.48 95 1012.1
20260904030106 71 221 0.0 0.0 0.00 0.48 0.48 95 1012.1
20260904025606 71 221 0.0 0.0 0.00 0.48 0.48 94 1012.1
20260904025107 71 221 0.0 0.0 0.00 0.48 0.48 94 1012.1
20260904024106 71 221 0.0 0.0 0.00 0.48 0.48 94 1012.3
20260904023606 71 221 0.0 0.0 0.00 0.48 0.48 94 1012.3
20260904023107 71 221 0.0 0.0 0.00 0.48 0.48 94 1012.3
20260904022607 72 221 0.0 0.0 0.00 0.48 0.48 94 1012.3
20260904022106 72 221 0.0 0.0 0.00 0.48 0.48 94 1012.2
20260904021606 72 221 0.0 0.0 0.00 0.48 0.48 94 1012.1
20260904020606 72 221 0.0 0.0 0.00 0.48 0.48 94 1012.2
20260904020106 72 221 0.0 0.0 0.00 0.48 0.48 94 1012.4
20260904015606 72 221 0.0 0.0 0.00 0.48 0.48 94 1012.6
20260904015106 72 221 0.0 0.0 0.00 0.48 0.48 94 1012.5
20260904014106 72 221 0.0 0.0 0.00 0.48 0.48 93 1012.8
20260904013606 72 221 0.0 0.0 0.00 0.48 0.48 93 1012.9
20260904013107 72 221 0.0 0.0 0.00 0.48 0.48 93 1012.8
20260904012607 73 221 0.0 0.0 0.00 0.48 0.48 93 1012.8
20260904012106 73 221 0.0 0.0 0.00 0.48 0.48 93 1012.8
20260904011606 73 221 0.0 0.0 0.00 0.48 0.48 93 1012.7
20260904011106 73 221 0.0 0.0 0.00 0.48 0.48 92 1012.6
20260904010606 73 221 0.0 0.0 0.00 0.48 0.48 92 1012.5
20260904010107 73 221 0.0 0.0 0.00 0.48 0.48 92 1012.5
20260904005606 73 221 0.0 0.0 0.00 0.48 0.48 92 1012.4
20260904005106 73 221 0.0 0.0 0.00 0.48 0.48 92 1012.5
20260904004606 74 221 0.0 0.0 0.00 0.48 0.48 92 1012.6
20260904004106 74 221 0.0 0.0 0.00 0.48 0.48 92 1012.6
20260904003606 74 221 0.0 0.0 0.00 0.48 0.48 92 1012.6
20260904003106 74 221 0.0 0.0 0.00 0.48 0.48 92 1012.6
20260904002606 74 221 0.0 0.0 0.00 0.48 0.48 92 1012.6
20260904002111 74 221 0.0 0.0 0.00 0.48 0.48 92 1012.6
20260904001106 75 221 0.0 0.0 0.00 0.48 0.48 91 1012.4
20260904000106 75 221 0.0 0.0 0.00 0.48 0.48 91 1012.1
20260903235606 75 221 0.0 0.0 0.00 0.48 0.48 91 1012.1
20260903235105 76 221 0.0 0.0 0.00 0.48 0.48 91 1012.0
20260903234106 76 221 0.0 0.0 0.00 0.48 0.48 91 1012.0
20260903233606 76 221 0.0 0.0 0.00 0.48 0.48 91 1011.9
20260903232106 77 221 0.0 0.0 0.00 0.48 0.48 90 1011.8
20260903231105 77 221 0.0 0.0 0.00 0.48 0.48 89 1011.9
20260903230606 77 221 0.0 0.0 0.00 0.48 0.48 89 1011.8
20260903230105 77 221 0.0 0.0 0.00 0.48 0.48 89 1011.8
20260903225605 78 221 0.0 0.0 0.00 0.48 0.48 89 1011.8
20260903224606 78 221 0.0 0.0 0.00 0.48 0.48 89 1012.0
20260903224106 78 221 0.0 0.0 0.00 0.48 0.48 88 1012.0
20260903223605 78 221 0.0 0.0 0.00 0.48 0.48 88 1012.0
20260903222606 78 221 0.0 0.0 0.00 0.48 0.48 87 1012.2
20260903222106 78 221 0.0 0.0 0.00 0.48 0.48 86 1012.2
20260903221106 79 221 0.0 0.0 0.00 0.48 0.48 85 1012.2
20260903220606 79 221 0.0 0.0 0.00 0.48 0.48 85 1012.1
20260903215606 80 221 0.0 0.0 0.00 0.48 0.48 85 1012.2
20260903215106 80 221 0.0 0.0 0.00 0.48 0.48 84 1012.2
20260903214106 80 221 0.0 0.0 0.00 0.48 0.48 82 1012.3
20260903213607 81 221 0.0 0.0 0.00 0.48 0.48 82 1012.1
20260903213105 81 221 0.0 0.0 0.00 0.48 0.48 81 1012.0
20260903212606 81 221 0.0 0.0 0.00 0.48 0.48 84 1011.9
20260903212106 81 221 0.0 0.0 0.00 0.48 0.48 85 1011.9
20260903211106 81 222 0.0 0.0 0.00 0.48 0.48 85 1012.0
20260903210606 81 222 0.0 0.0 0.00 0.48 0.48 85 1012.0
20260903210106 81 222 0.0 0.0 0.00 0.48 0.48 84 1012.1
20260903205606 81 222 0.0 0.0 0.00 0.48 0.48 83 1012.2
20260903204606 81 222 0.0 0.0 0.00 0.48 0.48 83 1012.1
20260903204106 82 222 0.0 0.0 0.00 0.48 0.48 82 1012.2
20260903203607 82 222 0.0 1.0 0.00 0.48 0.48 80 1012.1
20260903202606 82 222 0.0 0.0 0.00 0.48 0.48 81 1012.2
20260903202106 82 222 0.0 1.0 0.00 0.48 0.48 82 1012.2
20260903201606 83 222 0.0 1.0 0.00 0.48 0.48 82 1012.2
20260903201106 83 222 0.0 1.0 0.00 0.48 0.48 80 1012.1
20260903200606 83 222 0.0 0.0 0.00 0.48 0.48 81 1012.1
20260903200106 83 222 0.0 0.0 0.00 0.48 0.48 81 1012.1
20260903195106 83 222 0.0 0.0 0.00 0.48 0.48 79 1012.3
20260903194606 83 222 0.0 1.0 0.00 0.48 0.48 78 1012.3
20260903194105 84 222 0.0 2.0 0.00 0.48 0.48 77 1012.4
20260903193606 84 222 1.0 3.0 0.00 0.48 0.48 76 1012.3
20260903193106 84 214 0.0 1.0 0.00 0.48 0.48 77 1012.3
20260903192606 84 214 0.0 1.0 0.00 0.48 0.48 76 1012.3
20260903191106 83 227 1.0 3.0 0.00 0.48 0.48 78 1012.5
20260903190605 83 222 0.0 3.0 0.00 0.48 0.48 78 1012.5
20260903190106 82 240 0.0 2.0 0.00 0.48 0.48 78 1012.7
20260903185106 82 151 2.0 3.0 0.00 0.48 0.48 76 1012.8
20260903184106 82 43 1.0 3.0 0.00 0.48 0.48 79 1012.8
20260903183605 82 244 1.0 2.0 0.00 0.48 0.48 78 1012.9
20260903183106 81 244 1.0 3.0 0.00 0.48 0.48 78 1013.0
20260903182605 82 142 1.0 3.0 0.00 0.48 0.48 78 1013.0
20260903182106 81 238 0.0 3.0 0.00 0.48 0.48 81 1013.0
20260903181606 81 240 0.0 3.0 0.00 0.48 0.48 83 1012.9
20260903181105 81 172 0.0 2.0 0.00 0.48 0.48 82 1013.0
20260903180106 80 250 2.0 3.0 0.00 0.48 0.48 80 1013.1
20260903175606 80 220 1.0 3.0 0.00 0.48 0.48 83 1013.2
20260903175105 79 223 1.0 3.0 0.00 0.48 0.48 80 1013.2
20260903174105 79 205 1.0 2.0 0.00 0.48 0.48 80 1013.1
20260903173605 79 240 1.0 3.0 0.00 0.48 0.48 82 1013.2
20260903173106 79 243 1.0 2.0 0.00 0.48 0.48 81 1013.3
20260903172605 79 242 0.0 5.0 0.00 0.48 0.48 80 1013.3
20260903171605 79 198 2.0 8.0 0.00 0.48 0.48 84 1013.3
20260903171106 78 210 1.0 3.0 0.00 0.48 0.48 85 1013.4
20260903170605 78 216 1.0 2.0 0.00 0.48 0.48 84 1013.4
20260903170106 78 219 0.0 3.0 0.00 0.48 0.48 83 1013.3
20260903165605 78 208 2.0 3.0 0.00 0.48 0.48 86 1013.3
20260903165106 77 202 1.0 2.0 0.00 0.48 0.48 88 1013.4
20260903164605 77 202 1.0 2.0 0.00 0.48 0.48 88 1013.4
20260903164106 76 202 0.0 3.0 0.00 0.48 0.48 87 1013.4
20260903163605 76 148 1.0 3.0 0.00 0.48 0.48 88 1013.5
20260903163106 76 142 1.0 2.0 0.00 0.48 0.48 87 1013.6
20260903162105 76 187 2.0 7.0 0.00 0.48 0.48 89 1013.6
20260903161605 76 215 2.0 3.0 0.00 0.48 0.48 89 1013.8
20260903161105 75 208 1.0 3.0 0.00 0.48 0.48 90 1013.9
20260903160605 75 157 1.0 3.0 0.00 0.48 0.48 91 1013.9
20260903160106 75 208 2.0 7.0 0.00 0.48 0.48 93 1013.9
20260903155605 75 202 1.0 3.0 0.00 0.48 0.48 94 1014.0
20260903155106 75 157 1.0 3.0 0.00 0.48 0.48 94 1013.9
20260903154606 74 148 1.0 3.0 0.00 0.48 0.48 95 1013.9
20260903154105 74 216 0.0 2.0 0.00 0.48 0.48 96 1014.0
20260903153606 74 198 0.0 1.0 0.00 0.48 0.48 95 1014.1
20260903153105 74 198 0.0 1.0 0.00 0.48 0.48 96 1014.2
20260903152605 74 198 1.0 2.0 0.00 0.48 0.48 96 1014.2
20260903151605 74 198 0.0 2.0 0.00 0.48 0.48 96 1014.2
20260903151105 73 198 1.0 2.0 0.00 0.48 0.48 96 1014.4
20260903150605 73 198 0.0 2.0 0.00 0.48 0.48 96 1014.4
20260903145605 73 208 1.0 3.0 0.00 0.48 0.48 97 1014.3
20260903144606 73 117 0.0 2.0 0.00 0.48 0.48 97 1014.2
20260903144106 73 222 1.0 3.0 0.00 0.48 0.48 97 1014.2
20260903143605 73 209 0.0 3.0 0.00 0.48 0.48 97 1014.2
20260903143106 73 212 1.0 3.0 0.00 0.48 0.48 97 1014.2
20260903142105 72 250 1.0 2.0 0.00 0.48 0.48 98 1014.3
20260903141605 72 250 1.0 2.0 0.00 0.48 0.48 97 1014.4
20260903140605 72 250 0.0 2.0 0.00 0.48 0.48 98 1014.5
20260903135605 72 247 1.0 2.0 0.00 0.48 0.48 98 1014.5
20260903135107 72 246 0.0 1.0 0.00 0.48 0.48 98 1014.5
20260903134605 72 246 0.0 1.0 0.00 0.48 0.48 97 1014.6
20260903134106 72 246 0.0 1.0 0.00 0.48 0.48 97 1014.7
20260903133607 72 246 1.0 2.0 0.00 0.48 0.48 98 1014.6
20260903133105 72 246 1.0 2.0 0.00 0.48 0.48 98 1014.6
20260903132605 72 246 1.0 2.0 0.00 0.48 0.48 98 1014.6
20260903132105 71 245 1.0 2.0 0.00 0.48 0.48 98 1014.7
20260903131605 71 251 1.0 2.0 0.00 0.48 0.48 98 1015.0
20260903131105 71 202 1.0 2.0 0.00 0.48 0.48 98 1015.0
20260903130605 71 182 0.0 2.0 0.00 0.48 0.48 98 1014.9
20260903130105 71 182 0.0 1.0 0.00 0.48 0.48 98 1015.0
20260903125606 70 182 0.0 2.0 0.00 0.48 0.48 98 1015.0
20260903125105 70 182 0.0 1.0 0.00 0.48 0.48 98 1015.0
20260903124606 69 186 0.0 0.0 0.00 0.48 0.48 98 1015.0
20260903124105 69 186 1.0 2.0 0.00 0.48 0.48 98 1015.0
20260903121605 69 186 0.0 0.0 0.00 0.48 0.48 97 1015.6
20260903121105 69 186 0.0 0.0 0.00 0.48 0.48 97 1015.5
20260903120605 68 186 0.0 1.0 0.00 0.48 0.48 97 1015.4
20260903120106 68 186 0.0 2.0 0.00 0.48 0.48 97 1015.5
20260903115606 68 215 0.0 0.0 0.00 0.48 0.48 97 1015.5
20260903115105 68 215 0.0 1.0 0.00 0.48 0.48 97 1015.6
20260903114605 68 215 1.0 2.0 0.00 0.48 0.48 97 1015.8
20260903114105 68 215 0.0 2.0 0.00 0.48 0.48 97 1015.7
20260903113605 68 215 0.0 1.0 0.00 0.48 0.48 97 1015.7
20260903113105 68 215 0.0 1.0 0.00 0.48 0.48 97 1015.8
20260903112605 68 215 0.0 2.0 0.00 0.48 0.48 97 1015.7
20260903112105 68 215 0.0 1.0 0.00 0.48 0.48 97 1015.8
20260903111605 67 215 0.0 2.0 0.00 0.48 0.48 97 1015.6
20260903110605 67 215 1.0 2.0 0.00 0.48 0.48 97 1015.6
20260903110105 67 215 0.0 1.0 0.00 0.48 0.48 97 1015.6
20260903105605 67 215 0.0 2.0 0.00 0.48 0.48 97 1015.6
20260903105105 67 215 0.0 2.0 0.00 0.48 0.48 97 1015.5
20260903104605 67 215 0.0 1.0 0.00 0.48 0.48 97 1015.4
20260903104105 67 215 0.0 0.0 0.00 0.48 0.48 97 1015.4
20260903103605 67 215 0.0 0.0 0.00 0.48 0.48 97 1015.3
20260903103105 67 215 0.0 0.0 0.00 0.48 0.48 97 1015.3
20260903102105 67 215 1.0 2.0 0.00 0.48 0.48 97 1015.5
20260903101605 67 215 0.0 0.0 0.00 0.48 0.48 97 1015.4
20260903101105 67 215 0.0 1.0 0.00 0.48 0.48 97 1015.3
20260903100605 67 215 0.0 0.0 0.00 0.48 0.48 97 1015.0
20260903100105 67 215 0.0 0.0 0.00 0.48 0.48 97 1014.8
20260903095605 67 215 0.0 1.0 0.00 0.48 0.48 97 1014.9
20260903095105 67 215 0.0 1.0 0.00 0.48 0.48 97 1015.0
20260903094605 67 215 0.0 2.0 0.00 0.48 0.48 97 1015.0
20260903094105 67 215 0.0 1.0 0.00 0.48 0.48 96 1014.8
20260903093105 67 215 0.0 1.0 0.00 0.48 0.48 96 1014.8
20260903092605 67 215 0.0 0.0 0.00 0.48 0.48 96 1014.8
20260903092105 67 215 0.0 0.0 0.00 0.48 0.48 96 1015.0
20260903091605 67 215 0.0 0.0 0.00 0.48 0.48 96 1015.0
20260903091105 67 215 0.0 0.0 0.00 0.48 0.48 96 1015.1
20260903090605 67 215 0.0 0.0 0.00 0.48 0.48 96 1015.0
20260903085605 67 215 0.0 1.0 0.00 0.48 0.48 96 1015.2
20260903085105 67 215 1.0 1.0 0.00 0.48 0.48 96 1015.1
20260903084605 67 215 1.0 2.0 0.00 0.48 0.48 96 1015.1
20260903084105 67 215 0.0 0.0 0.00 0.48 0.48 96 1015.1
20260903083106 67 215 0.0 0.0 0.00 0.48 0.48 96 1015.3
20260903082605 67 215 0.0 0.0 0.00 0.48 0.48 96 1015.4
20260903082105 67 215 1.0 1.0 0.01 0.48 0.48 96 1015.4
20260903081605 67 215 0.0 1.0 0.01 0.48 0.48 96 1015.5
20260903081105 67 215 0.0 0.0 0.01 0.48 0.48 96 1015.5
20260903080605 67 215 0.0 0.0 0.01 0.48 0.48 96 1015.6
20260903080106 67 215 0.0 0.0 0.01 0.48 0.48 96 1015.6
20260903075606 66 215 0.0 1.0 0.01 0.48 0.48 96 1015.7
20260903075105 66 215 0.0 0.0 0.02 0.48 0.48 96 1015.7
20260903074606 66 215 0.0 0.0 0.02 0.48 0.48 96 1015.8